Regional Weather Roundup
Issued by NWS

Home | Current Version | Previous Version | Text Only | Print | Product List | Glossary On
Versions: 1 2 3 4 5 6 7 8 9 10 11 12 13 14 15 16 17 18 19 20 21 22 23 24 25 26 27
000
ASPQ40 PGUM 191212
RWRPQ
WEATHER ROUNDUP FOR THE MARIANAS AND MICRONESIA
NATIONAL WEATHER SERVICE TIYAN GU
1000 PM CHST SUN NOV 19 2017

GUZ001>004-191300-
MARIANA ISLANDS-

CITY           SKY/WX    TMP DP  RH WIND       PRES   REMARKS
GUAM AIRPORT   CLEAR     81  77  89 NE8       29.88F
ANDERSEN AFB   PTCLDY    81  75  83 NE12      29.89S
ROTA AIRPORT   NOT AVBL
TINIAN AP      NOT AVBL
SAIPAN AP      MOCLDY    81  77  89 NE8       29.89R

$$

PMZ161-191300-
REPUBLIC OF PALAU-

CITY           SKY/WX    TMP DP  RH WIND       PRES   REMARKS
KOROR AP       MOCLDY    82  77  83 NE12G18   29.79R HX  91
KOROR WSO      MOCLDY    82  77  83 NE7       29.80R HX  91

$$

PMZ171>174-191300-
FEDERATED STATES OF MICRONESIA-

CITY           SKY/WX    TMP DP  RH WIND       PRES   REMARKS
YAP AIRPORT    MOCLDY    81  79  94 VRB6      29.82R
CHUUK AP       CLOUDY    82  77  83 E7        29.81S HX  91
POHNPEI AP     PTCLDY    79  77  94 E2        29.77S
POHNPEI WSO    MOCLDY    77  77 100 E3        29.80F
KOSRAE AP      NOT AVBL

$$

PMZ181-191300-
REPUBLIC OF THE MARSHALL ISLANDS-

CITY           SKY/WX    TMP DP  RH WIND       PRES   REMARKS
KWAJALEIN AP   MOCLDY    82  77  83 SE5       29.78S HX  91
MAJURO AP      NOT AVBL
MAJURO WSO     MOCLDY    84  77  79 SE12      29.74F HX  94

$$





USA.gov is the U.S. government's official web portal to all federal, state and local government web resources and services.